This demonstration page uses our WeatherBlox Daily Observations layout. Learn more.

Left ArrowRight Arrow

38.20091, -84.87328

Hourly Observations for February 16, 2018

Temp ( °F °C ) Dew Point ( °F °C ) Humidity (%) Winds ( mph kmh ) Pressure ( in mb ) Visibility ( mi km ) Precip ( " mm )
12:53 am 00:53 Cloudy 69 20.6 57 13.9 66 66 SW 17 28 29.77 1008 10 16 0.00 0.00
1:53 am 01:53 Cloudy 69 20.6 57 13.9 66 66 WSW 16 26 29.75 1008 10 16 0.00 0.00
2:53 am 02:53 Cloudy with Light Rain 61 16.1 56 13.3 84 84 NNW 14 22 29.78 1008 10 16 0.00 0.03
2:56 am 02:56 Cloudy with Light Rain 60 15.6 55 12.8 84 84 N 14 22 29.80 1009 6 10 0.03 0.76
3:09 am 03:09 Cloudy with Heavy Rain 60 15.6 56 13.3 86 86 NW 13 20 29.80 1009 3 4 0.13 3.30
3:17 am 03:17 Cloudy with Heavy Rain 60 15.6 56 13.3 86 86 WNW 10 17 29.80 1009 3 5 0.19 4.83
3:23 am 03:23 Cloudy with Heavy Rain 60 15.6 56 13.3 86 86 WNW 9 15 29.80 1009 2 3 0.24 6.10
3:30 am 03:30 Cloudy with Rain 59 15 56 13.3 90 90 VRB 7 11 29.80 1009 3 5 0.26 6.60
3:53 am 03:53 Cloudy with Rain 60 15.6 56 13.3 86 86 W 12 19 29.79 1009 4 6 0.31 7.87
4:53 am 04:53 Cloudy with Light Rain 59 15 55 12.8 87 87 W 9 15 29.77 1008 9 14 0.08 2.03
5:53 am 05:53 Cloudy with Light Rain 57 13.9 54 12.2 90 90 W 8 13 29.80 1009 5 8 0.09 2.29
6:53 am 06:53 Cloudy with Light Rain 56 13.3 53 11.7 90 90 SW 8 13 29.80 1009 10 16 0.07 1.78
7:14 am 07:14 Cloudy with Light Rain 56 13.3 54 12.2 93 93 WSW 6 9 29.83 1010 6 10 0.03 0.76
7:28 am 07:28 Cloudy with Rain 57 13.9 54 12.2 90 90 NW 8 13 29.85 1011 2 3 0.10 2.54
7:33 am 07:33 Cloudy with Rain 57 13.9 53 11.7 87 87 NW 8 13 29.85 1011 3 5 0.10 2.54
7:53 am 07:53 Cloudy with Rain 56 13.3 52 11.1 87 87 WNW 14 22 29.89 1012 6 10 0.12 3.05
8:14 am 08:14 Cloudy with Rain 52 11.1 46 7.8 80 80 NW 20 31 29.91 1013 3 5 0.04 1.02
8:53 am 08:53 Cloudy with Light Rain 49 9.4 42 5.6 77 77 NNW 20 31 29.96 1015 7 11 0.08 2.03
9:53 am 09:53 Cloudy with Rain 45 7.2 39 3.9 80 80 NNW 16 26 30.02 1017 5 8 0.07 1.78
10:43 am 10:43 Cloudy with Rain 44 6.7 39 3.9 83 83 VRB 3 6 30.09 1019 3 4 0.12 3.05
10:53 am 10:53 Cloudy with Light Rain 44 6.7 40 4.4 85 85 NW 3 6 30.05 1018 4 6 0.13 3.30
11:53 am 11:53 Cloudy with Light Rain 45 7.2 41 5 86 86 W 5 7 30.07 1018 4 6 0.07 1.78
12:28 pm 12:28 Cloudy 45 7.2 40 4.4 83 83 NW 14 22 30.12 1020 10 16 0.01 0.25
12:50 pm 12:50 Cloudy 45 7 39 4 81 81 NW 10 17 30.15 1021 8 13 0.01 0.25
12:53 pm 12:53 Cloudy 45 7.2 39 3.9 80 80 NNW 13 20 30.11 1020 8 13 0.01 0.25
1:53 pm 13:53 Cloudy with Haze 44 6.7 37 2.8 76 76 NNW 15 24 30.11 1020 6 10 0.00 0.00
2:53 pm 14:53 Cloudy with Haze 43 6.1 36 2.2 76 76 NW 8 13 30.16 1021 5 8 0.00 0.00
3:53 pm 15:53 Cloudy 41 5 34 1.1 76 76 NW 12 19 30.20 1023 8 13 0.00 0.00
4:53 pm 16:53 Cloudy 41 5 32 0 70 70 NW 13 20 30.22 1023 10 16 0.00 0.00
5:53 pm 17:53 Cloudy 40 4.4 31 -0.6 70 70 NNW 8 13 30.24 1024 10 16 0.00 0.00
6:53 pm 18:53 Cloudy 39 3.9 30 -1.1 70 70 NNW 8 13 30.27 1025 10 16 0.00 0.00
7:53 pm 19:53 Cloudy 39 3.9 31 -0.6 73 73 NNW 5 7 30.27 1025 10 16 0.00 0.00
8:12 pm 20:12 Cloudy 39 3.9 30 -1.1 70 70 NW 5 7 30.30 1026 10 16 0.00 0.00
8:53 pm 20:53 Cloudy 38 3.3 31 -0.6 76 76 NNW 3 6 30.28 1025 10 16 0.00 0.00
9:53 pm 21:53 Cloudy 38 3.3 28 -2.2 68 68 N 5 7 30.29 1026 10 16 0.00 0.00
10:53 pm 22:53 Cloudy 37 2.8 29 -1.7 73 73 NNW 5 7 30.28 1026 10 16 0.00 0.00
11:53 pm 23:53 Cloudy 37 2.8 28 -2.2 70 70 Calm 30.27 1025 10 16 0.00 0.00

Powered by AerisWeather